TimeCDT,TemperatureF,Dew PointF,Humidity,Sea Level PressureIn,VisibilityMPH,Wind Direction,Wind SpeedMPH,Gust SpeedMPH,PrecipitationIn,Events,Conditions,WindDirDegrees,DateUTC
12:08 AM,55.4,53.6,94,29.79,8.0,Calm,Calm,-,N/A,,Overcast,0,2013-05-29 05:08:00
12:37 AM,55.4,53.6,94,29.78,8.0,Calm,Calm,-,N/A,,Overcast,0,2013-05-29 05:37:00
12:45 AM,55.4,53.6,94,29.78,6.0,Calm,Calm,-,N/A,,Overcast,0,2013-05-29 05:45:00
12:53 AM,55.9,54.0,93,29.80,5.0,SSW,3.5,-,N/A,,Overcast,210,2013-05-29 05:53:00
1:01 AM,55.4,53.6,94,29.79,5.0,SSW,3.5,-,N/A,,Overcast,210,2013-05-29 06:01:00
1:10 AM,55.4,55.4,100,29.80,5.0,Calm,Calm,-,N/A,,Overcast,0,2013-05-29 06:10:00
1:22 AM,55.4,55.4,100,29.79,4.0,Calm,Calm,-,N/A,,Overcast,0,2013-05-29 06:22:00
1:53 AM,55.9,54.0,93,29.80,4.0,Calm,Calm,-,N/A,,Overcast,0,2013-05-29 06:53:00
2:13 AM,55.4,53.6,94,29.78,4.0,Calm,Calm,-,N/A,,Overcast,0,2013-05-29 07:13:00
2:53 AM,55.9,54.0,93,29.79,5.0,Calm,Calm,-,N/A,,Overcast,0,2013-05-29 07:53:00
3:14 AM,55.4,53.6,94,29.79,6.0,Calm,Calm,-,N/A,,Overcast,0,2013-05-29 08:14:00
3:53 AM,55.9,54.0,93,29.79,3.0,Calm,Calm,-,N/A,,Overcast,0,2013-05-29 08:53:00
4:53 AM,55.9,54.0,93,29.81,4.0,Calm,Calm,-,N/A,,Overcast,0,2013-05-29 09:53:00
5:03 AM,55.4,53.6,94,29.81,4.0,Calm,Calm,-,N/A,,Overcast,0,2013-05-29 10:03:00
5:46 AM,55.4,53.6,94,29.84,2.5,Variable,3.5,-,N/A,,Overcast,0,2013-05-29 10:46:00
5:53 AM,55.9,54.0,93,29.83,1.8,SSW,3.5,-,0.01,,Overcast,200,2013-05-29 10:53:00
6:19 AM,55.4,53.6,94,29.82,2.0,Calm,Calm,-,N/A,,Overcast,0,2013-05-29 11:19:00
6:37 AM,55.4,55.4,100,29.82,3.0,Calm,Calm,-,N/A,,Overcast,0,2013-05-29 11:37:00
6:53 AM,57.0,55.0,93,29.82,4.0,Calm,Calm,-,N/A,,Overcast,0,2013-05-29 11:53:00
7:53 AM,57.0,55.0,93,29.84,9.0,Calm,Calm,-,N/A,,Overcast,0,2013-05-29 12:53:00
8:14 AM,57.2,55.4,94,29.83,10.0,South,3.5,-,N/A,,Overcast,170,2013-05-29 13:14:00
8:53 AM,59.0,55.0,87,29.84,10.0,South,6.9,-,N/A,,Overcast,170,2013-05-29 13:53:00
9:53 AM,59.0,54.0,83,29.85,10.0,SSW,6.9,-,N/A,,Overcast,200,2013-05-29 14:53:00
10:53 AM,60.1,54.0,80,29.86,10.0,South,10.4,-,N/A,,Overcast,180,2013-05-29 15:53:00
11:53 AM,62.1,55.0,78,29.85,10.0,Variable,3.5,-,N/A,,Overcast,0,2013-05-29 16:53:00
12:23 PM,64.4,55.4,73,29.84,10.0,ESE,6.9,-,N/A,,Scattered Clouds,110,2013-05-29 17:23:00
12:53 PM,68.0,55.9,65,29.83,10.0,Variable,3.5,-,N/A,,Clear,0,2013-05-29 17:53:00
1:53 PM,73.9,57.0,55,29.81,10.0,SSE,8.1,-,N/A,,Clear,150,2013-05-29 18:53:00
2:53 PM,75.9,55.0,48,29.78,10.0,Calm,Calm,-,N/A,,Clear,0,2013-05-29 19:53:00
3:53 PM,78.1,57.0,48,29.75,10.0,SSE,9.2,17.3,N/A,,Clear,150,2013-05-29 20:53:00
4:53 PM,80.1,60.1,50,29.74,10.0,South,10.4,18.4,N/A,,Clear,170,2013-05-29 21:53:00
5:53 PM,77.0,61.0,58,29.73,10.0,SSE,9.2,-,N/A,,Scattered Clouds,150,2013-05-29 22:53:00
6:53 PM,75.0,62.1,64,29.73,10.0,SSE,8.1,-,N/A,,Scattered Clouds,150,2013-05-29 23:53:00
7:53 PM,71.1,64.0,78,29.73,10.0,SE,6.9,-,0.00,,Partly Cloudy,140,2013-05-30 00:53:00
8:53 PM,69.1,62.1,78,29.73,10.0,SSE,9.2,-,N/A,,Overcast,160,2013-05-30 01:53:00
9:53 PM,66.9,60.1,79,29.75,10.0,SSE,8.1,-,N/A,,Mostly Cloudy,160,2013-05-30 02:53:00
10:53 PM,66.0,59.0,78,29.77,10.0,South,11.5,20.7,N/A,,Overcast,170,2013-05-30 03:53:00
11:53 PM,64.9,59.0,81,29.75,10.0,South,9.2,-,N/A,,Mostly Cloudy,170,2013-05-30 04:53:00